Weather History for KHQU - February, 2012

Change the Weather History Date:

Sunday, February 5, 2012

  Actual Average (KDBN) Record (KDBN)
Temperature  
Mean Temperature 64 °F -  
Max Temperature 75 °F 59 °F 83 °F (1957)
Min Temperature 53 °F 32 °F 13 °F (1970)
Degree Days  
Heating Degree Days 1    
Growing Degree Days 14 (Base 50)    
Moisture  
Dew Point 54 °F    
Average Humidity 68    
Maximum Humidity 88    
Minimum Humidity 41    
Precipitation  
Precipitation 0.00 in - - ()
Sea Level Pressure  
Sea Level Pressure 30.08 in    
Wind  
Wind Speed 6 mph (WSW)    
Max Wind Speed 12 mph    
Max Gust Speed 20 mph    
Visibility 10 miles    
Events      
Averages and records for this station are not official NWS values.
T = Trace of Precipitation, MM = Missing Value Source: NWS Daily Summary

Daily Weather History Graph

Daily Weather History Graph

Search for Another Location

Airport or City:

Trip Planner

Search our weather history database for the weather conditions in past years. The results will help you decide how hot, cold, wet, or windy it might be!

Date:

Astronomy

Feb. 05, 2012 Rise Set
Actual Time 7:23 AM EST 6:04 PM EST
Civil Twilight 6:57 AM EST 6:30 PM EST
Nautical Twilight 6:28 AM EST 7:00 PM EST
Astronomical Twilight 5:58 AM EST 7:29 PM EST
Moon 4:05 PM EST (2/5) 5:29 AM EST (2/5)
Length of Visible Light 11h 33m
Length of Day
10h 41m
Waxing Gibbous, 94% of the Moon is Illuminated
Feb 5
Waxing Gibbous
Feb 7
Full
Feb 14
Last Quarter
Feb 21
New
Feb 29
First Quarter

Hourly Weather History & Observations

Time (EST) Temp. Dew Point Humidity Pressure Visibility Wind Dir Wind Speed Gust Speed Precip Events Conditions
12:15 AM 64.4 °F 53.6 °F 68% 30.09 in 10.0 mi South 4.6 mph - N/A   Overcast
12:35 AM 64.4 °F 53.6 °F 68% 30.08 in 10.0 mi South 4.6 mph - N/A   Mostly Cloudy
12:55 AM 64.4 °F 53.6 °F 68% 30.08 in 10.0 mi South 5.8 mph - N/A   Scattered Clouds
1:15 AM 64.4 °F 53.6 °F 68% 30.08 in 10.0 mi SSW 5.8 mph - N/A   Mostly Cloudy
1:35 AM 64.4 °F 53.6 °F 68% 30.07 in 10.0 mi SSW 4.6 mph - N/A   Overcast
1:55 AM 64.4 °F 55.4 °F 73% 30.07 in 10.0 mi SW 5.8 mph - N/A   Overcast
2:15 AM 64.4 °F 57.2 °F 77% 30.06 in 10.0 mi SSW 8.1 mph - N/A   Overcast
2:35 AM 64.4 °F 57.2 °F 77% 30.05 in 10.0 mi SSW 10.4 mph 19.6 mph N/A   Mostly Cloudy
2:55 AM 64.4 °F 57.2 °F 77% 30.05 in 10.0 mi SW 8.1 mph - N/A   Scattered Clouds
3:15 AM 64.4 °F 59.0 °F 83% 30.05 in 10.0 mi SW 6.9 mph - N/A   Mostly Cloudy
3:35 AM 64.4 °F 59.0 °F 83% 30.05 in 10.0 mi SW 5.8 mph - N/A   Mostly Cloudy
3:55 AM 64.4 °F 59.0 °F 83% 30.05 in 10.0 mi SSW 5.8 mph - N/A   Overcast
4:15 AM 64.4 °F 59.0 °F 83% 30.05 in 10.0 mi SW 6.9 mph - N/A   Overcast
4:35 AM 64.4 °F 59.0 °F 83% 30.05 in 10.0 mi WSW 8.1 mph - N/A   Mostly Cloudy
4:55 AM 64.4 °F 59.0 °F 83% 30.05 in 10.0 mi WSW 5.8 mph - N/A   Mostly Cloudy
5:15 AM 64.4 °F 59.0 °F 83% 30.04 in 10.0 mi SW 8.1 mph 17.3 mph N/A   Scattered Clouds
5:35 AM 62.6 °F 59.0 °F 88% 30.05 in 10.0 mi WSW 5.8 mph - N/A   Clear
5:55 AM 62.6 °F 59.0 °F 88% 30.06 in 10.0 mi WSW 5.8 mph - N/A   Scattered Clouds
6:15 AM 62.6 °F 59.0 °F 88% 30.07 in 10.0 mi West 6.9 mph - N/A   Clear
6:35 AM 62.6 °F 59.0 °F 88% 30.07 in 10.0 mi WSW 8.1 mph - N/A   Mostly Cloudy
6:55 AM 62.6 °F 59.0 °F 88% 30.08 in 10.0 mi West 6.9 mph - N/A   Overcast
7:15 AM 62.6 °F 57.2 °F 82% 30.08 in 10.0 mi West 4.6 mph - N/A   Scattered Clouds
7:35 AM 60.8 °F 57.2 °F 88% 30.08 in 10.0 mi West 4.6 mph - N/A   Clear
7:55 AM 60.8 °F 57.2 °F 88% 30.09 in 10.0 mi West 4.6 mph - N/A   Clear
8:15 AM 62.6 °F 57.2 °F 82% 30.09 in 10.0 mi West 4.6 mph - N/A   Clear
8:35 AM 62.6 °F 57.2 °F 82% 30.10 in 10.0 mi West 3.5 mph - N/A   Clear
8:55 AM 62.6 °F 57.2 °F 82% 30.10 in 10.0 mi West 3.5 mph - N/A   Clear
9:15 AM 64.4 °F 57.2 °F 77% 30.10 in 10.0 mi WSW 5.8 mph - N/A   Clear
9:35 AM 64.4 °F 57.2 °F 77% 30.11 in 10.0 mi WSW 6.9 mph - N/A   Scattered Clouds
9:55 AM 66.2 °F 55.4 °F 68% 30.11 in 10.0 mi West 6.9 mph - N/A   Scattered Clouds
10:15 AM 68.0 °F 55.4 °F 64% 30.11 in 10.0 mi WNW 11.5 mph - N/A   Scattered Clouds
10:35 AM 68.0 °F 55.4 °F 64% 30.11 in 10.0 mi West 10.4 mph - N/A   Scattered Clouds
10:55 AM 68.0 °F 53.6 °F 60% 30.12 in 10.0 mi NW 10.4 mph - N/A   Clear
11:15 AM 68.0 °F 53.6 °F 60% 30.11 in 10.0 mi West 5.8 mph - N/A   Clear
11:35 AM 69.8 °F 53.6 °F 56% 30.11 in 10.0 mi WNW 6.9 mph - N/A   Clear
11:55 AM 71.6 °F 53.6 °F 53% 30.10 in 10.0 mi West 9.2 mph - N/A   Clear
12:15 PM 71.6 °F 53.6 °F 53% 30.09 in 10.0 mi West 3.5 mph - N/A   Clear
12:35 PM 73.4 °F 51.8 °F 47% 30.08 in 10.0 mi WSW 8.1 mph - N/A   Clear
12:55 PM 73.4 °F 51.8 °F 47% 30.07 in 10.0 mi West 9.2 mph - N/A   Clear
1:15 PM 73.4 °F 51.8 °F 47% 30.06 in 10.0 mi West 6.9 mph - N/A   Clear
1:55 PM 73.4 °F 50.0 °F 44% 30.06 in 10.0 mi WSW 8.1 mph - N/A   Scattered Clouds
2:15 PM 75.2 °F 51.8 °F 44% 30.05 in 10.0 mi West 6.9 mph 17.3 mph N/A   Scattered Clouds
2:35 PM 75.2 °F 51.8 °F 44% 30.04 in 10.0 mi WNW 10.4 mph - N/A   Scattered Clouds
2:55 PM 75.2 °F 51.8 °F 44% 30.04 in 10.0 mi West 11.5 mph 16.1 mph N/A   Clear
3:15 PM 75.2 °F 50.0 °F 41% 30.04 in 10.0 mi West 9.2 mph - N/A   Clear
3:35 PM 75.2 °F 50.0 °F 41% 30.05 in 10.0 mi West 11.5 mph - N/A   Clear
3:55 PM 73.4 °F 51.8 °F 47% 30.05 in 10.0 mi West 11.5 mph 16.1 mph N/A   Clear
4:15 PM 73.4 °F 50.0 °F 44% 30.06 in 10.0 mi West 9.2 mph 19.6 mph N/A   Clear
4:35 PM 73.4 °F 50.0 °F 44% 30.06 in 10.0 mi West 8.1 mph - N/A   Clear
4:55 PM 73.4 °F 51.8 °F 47% 30.06 in 10.0 mi WNW 10.4 mph - N/A   Clear
5:15 PM 71.6 °F 50.0 °F 46% 30.06 in 10.0 mi West 6.9 mph - N/A   Clear
5:35 PM 71.6 °F 50.0 °F 46% 30.07 in 10.0 mi WSW 3.5 mph - N/A   Clear
5:55 PM 69.8 °F 50.0 °F 49% 30.08 in 10.0 mi West 5.8 mph - N/A   Clear
6:15 PM 68.0 °F 50.0 °F 52% 30.08 in 10.0 mi West 4.6 mph - N/A   Clear
6:35 PM 66.2 °F 51.8 °F 60% 30.09 in 10.0 mi Calm Calm - N/A   Clear
6:55 PM 62.6 °F 51.8 °F 68% 30.10 in 10.0 mi Calm Calm - N/A   Clear
7:15 PM 62.6 °F 51.8 °F 68% 30.10 in 10.0 mi Calm Calm - N/A   Clear
7:35 PM 59.0 °F 51.8 °F 77% 30.11 in 10.0 mi Calm Calm - N/A   Clear
7:55 PM 59.0 °F 51.8 °F 77% 30.12 in 10.0 mi Calm Calm - N/A   Clear
8:15 PM 59.0 °F 51.8 °F 77% 30.12 in 10.0 mi Calm Calm - N/A   Clear
8:35 PM 55.4 °F 50.0 °F 82% 30.13 in 10.0 mi Calm Calm - N/A   Clear
8:55 PM 55.4 °F 50.0 °F 82% 30.13 in 10.0 mi Calm Calm - N/A   Clear
9:15 PM 53.6 °F 50.0 °F 88% 30.14 in 10.0 mi NNW 3.5 mph - N/A   Clear
9:35 PM 53.6 °F 50.0 °F 88% 30.14 in 10.0 mi NNW 3.5 mph - N/A   Clear
9:55 PM 51.8 °F 50.0 °F 94% 30.15 in 10.0 mi North 3.5 mph - N/A   Clear
10:15 PM 51.8 °F 50.0 °F 94% 30.15 in 10.0 mi North 3.5 mph - N/A   Clear
10:35 PM 51.8 °F 50.0 °F 94% 30.15 in 10.0 mi North 3.5 mph - N/A   Clear
10:55 PM 53.6 °F 50.0 °F 88% 30.15 in 10.0 mi NE 6.9 mph - N/A   Mostly Cloudy
11:15 PM 59.0 °F 50.0 °F 72% 30.16 in 10.0 mi NE 9.2 mph - N/A   Overcast
11:35 PM 57.2 °F 51.8 °F 82% 30.17 in 10.0 mi NE 8.1 mph - N/A   Overcast
11:55 PM 57.2 °F 51.8 °F 82% 30.17 in 10.0 mi East 11.5 mph - N/A   Overcast